Latest  Newer  Older  Last 2 hours animation  Current image  Latest image 
Rain/snow radar  Infrared sat images 
Real-time lightning map

All time is UTC (add 2 hours to UTC in wintertime, 3 hours to UTC in DST for Latvia local time)

2020/02/22 18:20 EVRA 221820Z 21021G32KT 9999 -SHRA BKN011 BKN015CB OVC019 05/03 Q0991 R18/290195 NOSIG
2020/02/22 18:20 EVLA 221820Z AUTO 25027KT 9999 OVC026/// 05/03 Q0993
2020/02/22 18:20 EVVA 221820Z AUTO 24026G38KT CAVOK 05/03 Q0988
2020/02/22 18:20 EYKA 221820Z 22013KT 200V260 9999 -RA BKN019 OVC034 05/01 Q1001 R08/290095
2020/02/22 18:20 EYPA 221820Z 25013G26KT 210V300 9999 BKN013 06/04 Q0996 R19/1///95
2020/02/22 18:20 EYSA 221820Z 22021KT 9999 -RA BKN009 BKN015 OVC017 04/03 Q0996 R14L/29//95 R14R/29//95 GRN NOSIG
2020/02/22 18:20 EYVI 221820Z 22017KT 9000 -SHRASN BKN006CB 03/02 Q1003 R19/2///95 NOSIG
2020/02/22 08:50 EEKA 220850Z 20016KT 160V240 9000 RA BKN009 OVC016 05/04 Q0995
2020/02/22 17:50 EEKE 221750Z AUTO 23018G33KT 9999NDV FEW014 BKN019 OVC037 06/04 Q0983
2020/02/22 13:50 EEPU 221350Z 19020G36KT 160V230 3600 -RA BR BKN008 OVC014 04/03 Q0991
2020/02/22 18:20 EETN 221820Z 21015KT 5000 RA BKN008 OVC015 03/02 Q0979 R08/290195 TEMPO 20018G30KT 3000 RASN
2020/02/22 17:50 EETU 221750Z AUTO 20022KT 9999 DZ BKN012/// BKN019/// OVC023/// 03/01 Q0986
   RIGA AIRPORT     EVRA               56 55N  023 58E   10   X     T          6 LV
   LIEPAJA INTL     EVLA        26406  56 31N  021 06E    4   X                8 LV
   VENTPILS         EVVA               57 21N  021 33E    6   X                8 LV
   KAUNAS           EYKA               54 54N  023 55E   77   X     T          6 LT
   PALANGA INTL     EYPA               55 55N  021 03E   10   X                6 LT
   SIAULIAI INTL    EYSA               55 54N  023 24E  135   X     T          6 LT
   VILNIUS INTL     EYVI        26730  54 38N  025 17E  197   X     T          6 LT
   KARDLA           EEKA        26116  58 59N  022 50E    4   X                8 EE
   KURESSAARE       EEKE               58 14N  022 31E    4   X                8 EE
   PARNU            EEPU               58 25N  024 28E   14   X                8 EE
   TALLINN          EETN        26038  59 24N  024 49E   40   X     T          8 EE
   TARTU            EETU               58 19N  026 41E   67   X                8 EE

cloud coverage image from sat24.com and METAR data from weather.noaa.gov